Year,Month,Day,Hour,Minute,Value (Times are PST for temperature in C)
2020,04,11,00,00,9.30
2020,04,11,00,01,9.30
2020,04,11,00,02,9.30
2020,04,11,00,03,9.20
2020,04,11,00,04,9.20
2020,04,11,00,05,9.10
2020,04,11,00,06,9.10
2020,04,11,00,07,9.00
2020,04,11,00,08,9.00
2020,04,11,00,09,8.90
2020,04,11,00,10,8.90
2020,04,11,00,11,8.80
2020,04,11,00,12,8.80
2020,04,11,00,13,8.70
2020,04,11,00,14,8.60
2020,04,11,00,15,8.60
2020,04,11,00,16,8.60
2020,04,11,00,17,8.50
2020,04,11,00,18,8.40
2020,04,11,00,19,8.40
2020,04,11,00,20,8.30
2020,04,11,00,21,8.30
2020,04,11,00,22,8.20
2020,04,11,00,23,8.20
2020,04,11,00,24,8.20
2020,04,11,00,25,8.20
2020,04,11,00,26,8.10
2020,04,11,00,27,8.10
2020,04,11,00,28,8.10
2020,04,11,00,29,8.10
2020,04,11,00,30,8.10
2020,04,11,00,31,8.10
2020,04,11,00,32,8.10
2020,04,11,00,33,8.10
2020,04,11,00,34,8.10
2020,04,11,00,35,8.10
2020,04,11,00,36,8.10
2020,04,11,00,37,8.20
2020,04,11,00,38,8.20
2020,04,11,00,39,8.20
2020,04,11,00,40,8.20
2020,04,11,00,41,8.20
2020,04,11,00,42,8.20
2020,04,11,00,43,8.20
2020,04,11,00,44,8.20
2020,04,11,00,45,8.20
2020,04,11,00,46,8.20
2020,04,11,00,47,8.20
2020,04,11,00,48,8.30
2020,04,11,00,49,8.30
2020,04,11,00,50,8.40
2020,04,11,00,51,8.40
2020,04,11,00,52,8.40
2020,04,11,00,53,8.50
2020,04,11,00,54,8.50
2020,04,11,00,55,8.60
2020,04,11,00,56,8.60
2020,04,11,00,57,8.60
2020,04,11,00,58,8.60
2020,04,11,00,59,8.60
2020,04,11,01,00,8.70
2020,04,11,01,01,8.70
2020,04,11,01,02,8.70
2020,04,11,01,03,8.70
2020,04,11,01,04,8.70
2020,04,11,01,05,8.80
2020,04,11,01,06,8.80
2020,04,11,01,07,8.90
2020,04,11,01,08,8.90
2020,04,11,01,09,8.90
2020,04,11,01,10,9.00
2020,04,11,01,11,9.00
2020,04,11,01,12,9.00
2020,04,11,01,13,9.10
2020,04,11,01,14,9.10
2020,04,11,01,15,9.10
2020,04,11,01,16,9.10
2020,04,11,01,17,9.20
2020,04,11,01,18,9.20
2020,04,11,01,19,9.20
2020,04,11,01,20,9.20
2020,04,11,01,21,9.20
2020,04,11,01,22,9.20
2020,04,11,01,23,9.20
2020,04,11,01,24,9.20
2020,04,11,01,25,9.20
2020,04,11,01,26,9.20
2020,04,11,01,27,9.20
2020,04,11,01,28,9.10
2020,04,11,01,29,9.10
2020,04,11,01,30,9.10
2020,04,11,01,31,9.10
2020,04,11,01,32,9.10
2020,04,11,01,33,9.10
2020,04,11,01,34,9.10
2020,04,11,01,35,9.10
2020,04,11,01,36,9.10
2020,04,11,01,37,9.10
2020,04,11,01,38,9.10
2020,04,11,01,39,9.10
2020,04,11,01,40,9.10
2020,04,11,01,41,9.10
2020,04,11,01,42,9.10
2020,04,11,01,43,9.10
2020,04,11,01,44,9.10
2020,04,11,01,45,9.10
2020,04,11,01,46,9.00
2020,04,11,01,47,9.00
2020,04,11,01,48,9.00
2020,04,11,01,49,9.10
2020,04,11,01,50,9.10
2020,04,11,01,51,9.10
2020,04,11,01,52,9.10
2020,04,11,01,53,9.10
2020,04,11,01,54,9.10
2020,04,11,01,55,9.10
2020,04,11,01,56,9.10
2020,04,11,01,57,9.10
2020,04,11,01,58,9.10
2020,04,11,01,59,9.10
2020,04,11,02,00,9.10
2020,04,11,02,01,9.10
2020,04,11,02,02,9.10
2020,04,11,02,03,9.10
2020,04,11,02,04,9.10
2020,04,11,02,05,9.10
2020,04,11,02,06,9.00
2020,04,11,02,07,9.00
2020,04,11,02,08,9.00
2020,04,11,02,09,8.90
2020,04,11,02,10,8.90
2020,04,11,02,11,8.90
2020,04,11,02,12,8.80
2020,04,11,02,13,8.80
2020,04,11,02,14,8.80
2020,04,11,02,15,8.80
2020,04,11,02,16,8.70
2020,04,11,02,17,8.70
2020,04,11,02,18,8.70
2020,04,11,02,19,8.70
2020,04,11,02,20,8.60
2020,04,11,02,21,8.60
2020,04,11,02,22,8.60
2020,04,11,02,23,8.50
2020,04,11,02,24,8.50
2020,04,11,02,25,8.40
2020,04,11,02,26,8.40
2020,04,11,02,27,8.40
2020,04,11,02,28,8.40
2020,04,11,02,29,8.30
2020,04,11,02,30,8.30
2020,04,11,02,31,8.30
2020,04,11,02,32,8.30
2020,04,11,02,33,8.30
2020,04,11,02,34,8.30
2020,04,11,02,35,8.30
2020,04,11,02,36,8.30
2020,04,11,02,37,8.30
2020,04,11,02,38,8.30
2020,04,11,02,39,8.30
2020,04,11,02,40,8.40
2020,04,11,02,41,8.40
2020,04,11,02,42,8.40
2020,04,11,02,43,8.40
2020,04,11,02,44,8.40
2020,04,11,02,45,8.40
2020,04,11,02,46,8.40
2020,04,11,02,47,8.30
2020,04,11,02,48,8.30
2020,04,11,02,49,8.30
2020,04,11,02,50,8.30
2020,04,11,02,51,8.30
2020,04,11,02,52,8.20
2020,04,11,02,53,8.20
2020,04,11,02,54,8.20
2020,04,11,02,55,8.20
2020,04,11,02,56,8.20
2020,04,11,02,57,8.20
2020,04,11,02,58,8.10
2020,04,11,02,59,8.10
2020,04,11,03,00,8.10
2020,04,11,03,01,8.10
2020,04,11,03,02,8.10
2020,04,11,03,03,8.10
2020,04,11,03,04,8.10
2020,04,11,03,05,8.10
2020,04,11,03,06,8.10
2020,04,11,03,07,8.10
2020,04,11,03,08,8.10
2020,04,11,03,09,8.10
2020,04,11,03,10,8.00
2020,04,11,03,11,8.00
2020,04,11,03,12,8.00
2020,04,11,03,13,8.00
2020,04,11,03,14,7.90
2020,04,11,03,15,7.90
2020,04,11,03,16,7.90
2020,04,11,03,17,7.90
2020,04,11,03,18,7.90
2020,04,11,03,19,7.80
2020,04,11,03,20,7.80
2020,04,11,03,21,7.80
2020,04,11,03,22,7.80
2020,04,11,03,23,7.80
2020,04,11,03,24,7.80
2020,04,11,03,25,7.80
2020,04,11,03,26,7.80
2020,04,11,03,27,7.80
2020,04,11,03,28,7.80
2020,04,11,03,29,7.80
2020,04,11,03,30,7.80
2020,04,11,03,31,7.90
2020,04,11,03,32,7.90
2020,04,11,03,33,7.90
2020,04,11,03,34,7.90
2020,04,11,03,35,7.90
2020,04,11,03,36,7.90
2020,04,11,03,37,7.90
2020,04,11,03,38,7.90
2020,04,11,03,39,8.00
2020,04,11,03,40,8.00
2020,04,11,03,41,8.10
2020,04,11,03,42,8.10
2020,04,11,03,43,8.10
2020,04,11,03,44,8.20
2020,04,11,03,45,8.20
2020,04,11,03,46,8.20
2020,04,11,03,47,8.20
2020,04,11,03,48,8.20
2020,04,11,03,49,8.20
2020,04,11,03,50,8.20
2020,04,11,03,51,8.20
2020,04,11,03,52,8.20
2020,04,11,03,53,8.20
2020,04,11,03,54,8.20
2020,04,11,03,55,8.20
2020,04,11,03,56,8.20
2020,04,11,03,57,8.20
2020,04,11,03,58,8.20
2020,04,11,03,59,8.20
2020,04,11,04,00,8.20
2020,04,11,04,01,8.20
2020,04,11,04,02,8.10
2020,04,11,04,03,8.10
2020,04,11,04,04,8.10
2020,04,11,04,05,8.10
2020,04,11,04,06,8.10
2020,04,11,04,07,8.10
2020,04,11,04,08,8.00
2020,04,11,04,09,8.00
2020,04,11,04,10,8.00
2020,04,11,04,11,8.00
2020,04,11,04,12,8.00
2020,04,11,04,13,8.00
2020,04,11,04,14,8.00
2020,04,11,04,15,8.00
2020,04,11,04,16,8.00
2020,04,11,04,17,8.00
2020,04,11,04,18,8.00
2020,04,11,04,19,8.00
2020,04,11,04,20,8.00
2020,04,11,04,21,8.00
2020,04,11,04,22,8.00
2020,04,11,04,23,7.90
2020,04,11,04,24,7.90
2020,04,11,04,25,7.90
2020,04,11,04,26,7.90
2020,04,11,04,27,7.90
2020,04,11,04,28,7.80
2020,04,11,04,29,7.80
2020,04,11,04,30,7.80
2020,04,11,04,31,7.80
2020,04,11,04,32,7.80
2020,04,11,04,33,7.70
2020,04,11,04,34,7.70
2020,04,11,04,35,7.70
2020,04,11,04,36,7.70
2020,04,11,04,37,7.70
2020,04,11,04,38,7.70
2020,04,11,04,39,7.70
2020,04,11,04,40,7.70
2020,04,11,04,41,7.70
2020,04,11,04,42,7.70
2020,04,11,04,43,7.70
2020,04,11,04,44,7.70
2020,04,11,04,45,7.70
2020,04,11,04,46,7.70
2020,04,11,04,47,7.70
2020,04,11,04,48,7.70
2020,04,11,04,49,7.70
2020,04,11,04,50,7.70
2020,04,11,04,51,7.70
2020,04,11,04,52,7.70
2020,04,11,04,53,7.70
2020,04,11,04,54,7.70
2020,04,11,04,55,7.70
2020,04,11,04,56,7.70
2020,04,11,04,57,7.70
2020,04,11,04,58,7.70
2020,04,11,04,59,7.70
2020,04,11,05,00,7.70
2020,04,11,05,01,7.70
2020,04,11,05,02,7.70
2020,04,11,05,03,7.70
2020,04,11,05,04,7.70
2020,04,11,05,05,7.70
2020,04,11,05,06,7.60
2020,04,11,05,07,7.60
2020,04,11,05,08,7.60
2020,04,11,05,09,7.60
2020,04,11,05,10,7.60
2020,04,11,05,11,7.60
2020,04,11,05,12,7.50
2020,04,11,05,13,7.50
2020,04,11,05,14,7.50
2020,04,11,05,15,7.50
2020,04,11,05,16,7.50
2020,04,11,05,17,7.50
2020,04,11,05,18,7.50
2020,04,11,05,19,7.50
2020,04,11,05,20,7.50
2020,04,11,05,21,7.50
2020,04,11,05,22,7.50
2020,04,11,05,23,7.40
2020,04,11,05,24,7.40
2020,04,11,05,25,7.40
2020,04,11,05,26,7.40
2020,04,11,05,27,7.40
2020,04,11,05,28,7.30
2020,04,11,05,29,7.30
2020,04,11,05,30,7.30
2020,04,11,05,31,7.20
2020,04,11,05,32,7.20
2020,04,11,05,33,7.20
2020,04,11,05,34,7.20
2020,04,11,05,35,7.20
2020,04,11,05,36,7.20
2020,04,11,05,37,7.10
2020,04,11,05,38,7.10
2020,04,11,05,39,7.10
2020,04,11,05,40,7.10
2020,04,11,05,41,7.10
2020,04,11,05,42,7.10
2020,04,11,05,43,7.10
2020,04,11,05,44,7.10
2020,04,11,05,45,7.10
2020,04,11,05,46,7.10
2020,04,11,05,47,7.20
2020,04,11,05,48,7.20
2020,04,11,05,49,7.20
2020,04,11,05,50,7.20
2020,04,11,05,51,7.20
2020,04,11,05,52,7.20
2020,04,11,05,53,7.20
2020,04,11,05,54,7.30
2020,04,11,05,55,7.30
2020,04,11,05,56,7.30
2020,04,11,05,57,7.30
2020,04,11,05,58,7.30
2020,04,11,05,59,7.40
2020,04,11,06,00,7.40
2020,04,11,06,01,7.40
2020,04,11,06,02,7.40
2020,04,11,06,03,7.40
2020,04,11,06,04,7.40
2020,04,11,06,05,7.40
2020,04,11,06,06,7.50
2020,04,11,06,07,7.50
2020,04,11,06,08,7.50
2020,04,11,06,09,7.50
2020,04,11,06,10,7.50
2020,04,11,06,11,7.50
2020,04,11,06,12,7.50
2020,04,11,06,13,7.50
2020,04,11,06,14,7.50
2020,04,11,06,15,7.50
2020,04,11,06,16,7.50
2020,04,11,06,17,7.50
2020,04,11,06,18,7.50
2020,04,11,06,19,7.50
2020,04,11,06,20,7.60
2020,04,11,06,21,7.60
2020,04,11,06,22,7.60
2020,04,11,06,23,7.60
2020,04,11,06,24,7.60
2020,04,11,06,25,7.60
2020,04,11,06,26,7.60
2020,04,11,06,27,7.60
2020,04,11,06,28,7.60
2020,04,11,06,29,7.60
2020,04,11,06,30,7.60
2020,04,11,06,31,7.70
2020,04,11,06,32,7.70
2020,04,11,06,33,7.70
2020,04,11,06,34,7.70
2020,04,11,06,35,7.70
2020,04,11,06,36,7.70
2020,04,11,06,37,7.70
2020,04,11,06,38,7.80
2020,04,11,06,39,7.80
2020,04,11,06,40,7.80
2020,04,11,06,41,7.80
2020,04,11,06,42,7.80
2020,04,11,06,43,7.80
2020,04,11,06,44,7.80
2020,04,11,06,45,7.80
2020,04,11,06,46,7.80
2020,04,11,06,47,7.80
2020,04,11,06,48,7.80
2020,04,11,06,49,7.80
2020,04,11,06,50,7.80
2020,04,11,06,51,7.80
2020,04,11,06,52,7.80
2020,04,11,06,53,7.80
2020,04,11,06,54,7.80
2020,04,11,06,55,7.80
2020,04,11,06,56,7.80
2020,04,11,06,57,7.80
2020,04,11,06,58,7.80
2020,04,11,06,59,7.80
2020,04,11,07,00,7.80
2020,04,11,07,01,7.80
2020,04,11,07,02,7.80
2020,04,11,07,03,7.80
2020,04,11,07,04,7.80
2020,04,11,07,05,7.80
2020,04,11,07,06,7.80
2020,04,11,07,07,7.80
2020,04,11,07,08,7.80
2020,04,11,07,09,7.80
2020,04,11,07,10,7.80
2020,04,11,07,11,7.80
2020,04,11,07,12,7.80
2020,04,11,07,13,7.80
2020,04,11,07,14,7.80
2020,04,11,07,15,7.80
2020,04,11,07,16,7.80
2020,04,11,07,17,7.80
2020,04,11,07,18,7.80
2020,04,11,07,19,7.80
2020,04,11,07,20,7.80
2020,04,11,07,21,7.80
2020,04,11,07,22,7.80
2020,04,11,07,23,7.80
2020,04,11,07,24,7.80
2020,04,11,07,25,7.90
2020,04,11,07,26,7.90
2020,04,11,07,27,7.90
2020,04,11,07,28,8.00
2020,04,11,07,29,8.00
2020,04,11,07,30,8.10
2020,04,11,07,31,8.10
2020,04,11,07,32,8.10
2020,04,11,07,33,8.20
2020,04,11,07,34,8.20
2020,04,11,07,35,8.30
2020,04,11,07,36,8.30
2020,04,11,07,37,8.30
2020,04,11,07,38,8.40
2020,04,11,07,39,8.40
2020,04,11,07,40,8.50
2020,04,11,07,41,8.60
2020,04,11,07,42,8.60
2020,04,11,07,43,8.70
2020,04,11,07,44,8.80
2020,04,11,07,45,8.80
2020,04,11,07,46,8.90
2020,04,11,07,47,8.90
2020,04,11,07,48,9.00
2020,04,11,07,49,9.00
2020,04,11,07,50,9.10
2020,04,11,07,51,9.10
2020,04,11,07,52,9.20
2020,04,11,07,53,9.30
2020,04,11,07,54,9.30
2020,04,11,07,55,9.30
2020,04,11,07,56,9.40
2020,04,11,07,57,9.50
2020,04,11,07,58,9.50
2020,04,11,07,59,9.60
2020,04,11,08,00,9.60
2020,04,11,08,01,9.70
2020,04,11,08,02,9.70
2020,04,11,08,03,9.70
2020,04,11,08,04,9.80
2020,04,11,08,05,9.90
2020,04,11,08,06,9.90
2020,04,11,08,07,10.00
2020,04,11,08,08,10.00
2020,04,11,08,09,10.10
2020,04,11,08,10,10.20
2020,04,11,08,11,10.20
2020,04,11,08,12,10.30
2020,04,11,08,13,10.30
2020,04,11,08,14,10.40
2020,04,11,08,15,10.50
2020,04,11,08,16,10.50
2020,04,11,08,17,10.60
2020,04,11,08,18,10.60
2020,04,11,08,19,10.60
2020,04,11,08,20,10.60
2020,04,11,08,21,10.60
2020,04,11,08,22,10.60
2020,04,11,08,23,10.60
2020,04,11,08,24,10.60
2020,04,11,08,25,10.60
2020,04,11,08,26,10.60
2020,04,11,08,27,10.60
2020,04,11,08,28,10.70
2020,04,11,08,29,10.70
2020,04,11,08,30,10.80
2020,04,11,08,31,10.80
2020,04,11,08,32,10.90
2020,04,11,08,33,11.00
2020,04,11,08,34,11.10
2020,04,11,08,35,11.10
2020,04,11,08,36,11.10
2020,04,11,08,37,11.10
2020,04,11,08,38,11.10
2020,04,11,08,39,11.00
2020,04,11,08,40,11.00
2020,04,11,08,41,11.00
2020,04,11,08,42,11.10
2020,04,11,08,43,11.10
2020,04,11,08,44,11.10
2020,04,11,08,45,11.20
2020,04,11,08,46,11.20
2020,04,11,08,47,11.30
2020,04,11,08,48,11.30
2020,04,11,08,49,11.30
2020,04,11,08,50,11.30
2020,04,11,08,51,11.40
2020,04,11,08,52,11.40
2020,04,11,08,53,11.40
2020,04,11,08,54,11.40
2020,04,11,08,55,11.30
2020,04,11,08,56,11.30
2020,04,11,08,57,11.30
2020,04,11,08,58,11.20
2020,04,11,08,59,11.20
2020,04,11,09,00,11.20
2020,04,11,09,01,11.20
2020,04,11,09,02,11.10
2020,04,11,09,03,11.10
2020,04,11,09,04,11.10
2020,04,11,09,05,11.10
2020,04,11,09,06,11.10
2020,04,11,09,07,11.00
2020,04,11,09,08,11.00
2020,04,11,09,09,10.90
2020,04,11,09,10,10.90
2020,04,11,09,11,10.90
2020,04,11,09,12,10.90
2020,04,11,09,13,10.90
2020,04,11,09,14,10.90
2020,04,11,09,15,10.80
2020,04,11,09,16,10.90
2020,04,11,09,17,10.90
2020,04,11,09,18,10.90
2020,04,11,09,19,10.90
2020,04,11,09,20,10.90
2020,04,11,09,21,11.00
2020,04,11,09,22,11.00
2020,04,11,09,23,11.00
2020,04,11,09,24,11.00
2020,04,11,09,25,11.00
2020,04,11,09,26,11.00
2020,04,11,09,27,11.00
2020,04,11,09,28,11.10
2020,04,11,09,29,11.10
2020,04,11,09,30,11.20
2020,04,11,09,31,11.20
2020,04,11,09,32,11.30
2020,04,11,09,33,11.30
2020,04,11,09,34,11.30
2020,04,11,09,35,11.30
2020,04,11,09,36,11.40
2020,04,11,09,37,11.50
2020,04,11,09,38,11.50
2020,04,11,09,39,11.50
2020,04,11,09,40,11.40
2020,04,11,09,41,11.40
2020,04,11,09,42,11.40
2020,04,11,09,43,11.40
2020,04,11,09,44,11.40
2020,04,11,09,45,11.40
2020,04,11,09,46,11.40
2020,04,11,09,47,11.40
2020,04,11,09,48,11.50
2020,04,11,09,49,11.50
2020,04,11,09,50,11.60
2020,04,11,09,51,11.60
2020,04,11,09,52,11.70
2020,04,11,09,53,11.80
2020,04,11,09,54,11.80
2020,04,11,09,55,11.80
2020,04,11,09,56,11.80
2020,04,11,09,57,11.70
2020,04,11,09,58,11.70
2020,04,11,09,59,11.60
2020,04,11,10,00,11.60
2020,04,11,10,01,11.60
2020,04,11,10,02,11.60
2020,04,11,10,03,11.60
2020,04,11,10,04,11.60
2020,04,11,10,05,11.70
2020,04,11,10,06,11.70
2020,04,11,10,07,11.70
2020,04,11,10,08,11.70
2020,04,11,10,09,11.70
2020,04,11,10,10,11.70
2020,04,11,10,11,11.70
2020,04,11,10,12,11.70
2020,04,11,10,13,11.70
2020,04,11,10,14,11.80
2020,04,11,10,15,11.80
2020,04,11,10,16,11.80
2020,04,11,10,17,11.80
2020,04,11,10,18,11.90
2020,04,11,10,19,11.90
2020,04,11,10,20,11.90
2020,04,11,10,21,11.90
2020,04,11,10,22,11.90
2020,04,11,10,23,11.90
2020,04,11,10,24,11.90
2020,04,11,10,25,11.90
2020,04,11,10,26,12.00
2020,04,11,10,27,12.00
2020,04,11,10,28,11.90
2020,04,11,10,29,11.90
2020,04,11,10,30,11.90
2020,04,11,10,31,11.90
2020,04,11,10,32,11.90
2020,04,11,10,33,11.90
2020,04,11,10,34,12.00
2020,04,11,10,35,12.00
2020,04,11,10,36,12.00
2020,04,11,10,37,12.00
2020,04,11,10,38,12.00
2020,04,11,10,39,11.90
2020,04,11,10,40,11.90
2020,04,11,10,41,12.00
2020,04,11,10,42,12.00
2020,04,11,10,43,12.10
2020,04,11,10,44,12.10
2020,04,11,10,45,12.10
2020,04,11,10,46,12.10
2020,04,11,10,47,12.10
2020,04,11,10,48,12.10
2020,04,11,10,49,12.10
2020,04,11,10,50,12.20
2020,04,11,10,51,12.20
2020,04,11,10,52,12.20
2020,04,11,10,53,12.20
2020,04,11,10,54,12.20
2020,04,11,10,55,12.20
2020,04,11,10,56,12.20
2020,04,11,10,57,12.20
2020,04,11,10,58,12.20
2020,04,11,10,59,12.20
2020,04,11,11,00,12.20
2020,04,11,11,01,12.30
2020,04,11,11,02,12.30
2020,04,11,11,03,12.30
2020,04,11,11,04,12.30
2020,04,11,11,05,12.30
2020,04,11,11,06,12.40
2020,04,11,11,07,12.40
2020,04,11,11,08,12.40
2020,04,11,11,09,12.40
2020,04,11,11,10,12.40
2020,04,11,11,11,12.40
2020,04,11,11,12,12.40
2020,04,11,11,13,12.50
2020,04,11,11,14,12.60
2020,04,11,11,15,12.70
2020,04,11,11,16,12.70
2020,04,11,11,17,12.70
2020,04,11,11,18,12.70
2020,04,11,11,19,12.70
2020,04,11,11,20,12.70
2020,04,11,11,21,12.70
2020,04,11,11,22,12.70
2020,04,11,11,23,12.70
2020,04,11,11,24,12.70
2020,04,11,11,25,12.70
2020,04,11,11,26,12.70
2020,04,11,11,27,12.70
2020,04,11,11,28,12.70
2020,04,11,11,29,12.80
2020,04,11,11,30,12.80
2020,04,11,11,31,12.80
2020,04,11,11,32,12.80
2020,04,11,11,33,12.90
2020,04,11,11,34,12.90
2020,04,11,11,35,12.80
2020,04,11,11,36,12.80
2020,04,11,11,37,12.90
2020,04,11,11,38,12.90
2020,04,11,11,39,12.80
2020,04,11,11,40,12.80
2020,04,11,11,41,12.70
2020,04,11,11,42,12.70
2020,04,11,11,43,12.80
2020,04,11,11,44,12.80
2020,04,11,11,45,12.80
2020,04,11,11,46,12.90
2020,04,11,11,47,13.00
2020,04,11,11,48,13.00
2020,04,11,11,49,13.10
2020,04,11,11,50,13.10
2020,04,11,11,51,13.10
2020,04,11,11,52,13.10
2020,04,11,11,53,13.10
2020,04,11,11,54,13.10
2020,04,11,11,55,13.10
2020,04,11,11,56,13.10
2020,04,11,11,57,13.10
2020,04,11,11,58,13.10
2020,04,11,11,59,13.10
2020,04,11,12,00,13.10
2020,04,11,12,01,13.10
2020,04,11,12,02,13.20
2020,04,11,12,03,13.20
2020,04,11,12,04,13.20
2020,04,11,12,05,13.30
2020,04,11,12,06,13.30
2020,04,11,12,07,13.30
2020,04,11,12,08,13.30
2020,04,11,12,09,13.30
2020,04,11,12,10,13.30
2020,04,11,12,11,13.30
2020,04,11,12,12,13.30
2020,04,11,12,13,13.30
2020,04,11,12,14,13.30
2020,04,11,12,15,13.30
2020,04,11,12,16,13.30
2020,04,11,12,17,13.30
2020,04,11,12,18,13.30
2020,04,11,12,19,13.40
2020,04,11,12,20,13.40
2020,04,11,12,21,13.50
2020,04,11,12,22,13.50
2020,04,11,12,23,13.60
2020,04,11,12,24,13.70
2020,04,11,12,25,13.70
2020,04,11,12,26,13.80
2020,04,11,12,27,13.90
2020,04,11,12,28,13.90
2020,04,11,12,29,13.90
2020,04,11,12,30,13.90
2020,04,11,12,31,13.90
2020,04,11,12,32,14.00
2020,04,11,12,33,14.00
2020,04,11,12,34,14.10
2020,04,11,12,35,14.10
2020,04,11,12,36,14.10
2020,04,11,12,37,14.10
2020,04,11,12,38,14.10
2020,04,11,12,39,14.00
2020,04,11,12,40,14.00
2020,04,11,12,41,13.90
2020,04,11,12,42,13.90
2020,04,11,12,43,13.90
2020,04,11,12,44,13.90
2020,04,11,12,45,13.90
2020,04,11,12,46,13.90
2020,04,11,12,47,13.90
2020,04,11,12,48,13.90
2020,04,11,12,49,14.00
2020,04,11,12,50,14.00
2020,04,11,12,51,14.00
2020,04,11,12,52,14.00
2020,04,11,12,53,14.00
2020,04,11,12,54,13.90
2020,04,11,12,55,13.90
2020,04,11,12,56,13.90
2020,04,11,12,57,13.90
2020,04,11,12,58,14.00
2020,04,11,12,59,14.00
2020,04,11,13,00,14.00
2020,04,11,13,01,14.00
2020,04,11,13,02,14.10
2020,04,11,13,03,14.10
2020,04,11,13,04,14.20
2020,04,11,13,05,14.30
2020,04,11,13,06,14.30
2020,04,11,13,07,14.30
2020,04,11,13,08,14.30
2020,04,11,13,09,14.30
2020,04,11,13,10,14.30
2020,04,11,13,11,14.30
2020,04,11,13,12,14.30
2020,04,11,13,13,14.40
2020,04,11,13,14,14.40
2020,04,11,13,15,14.40
2020,04,11,13,16,14.40
2020,04,11,13,17,14.50
2020,04,11,13,18,14.50
2020,04,11,13,19,14.50
2020,04,11,13,20,14.50
2020,04,11,13,21,14.50
2020,04,11,13,22,14.60
2020,04,11,13,23,14.60
2020,04,11,13,24,14.70
2020,04,11,13,25,14.80
2020,04,11,13,26,14.70
2020,04,11,13,27,14.70
2020,04,11,13,28,14.70
2020,04,11,13,29,14.70
2020,04,11,13,30,14.70
2020,04,11,13,31,14.70
2020,04,11,13,32,14.60
2020,04,11,13,33,14.60
2020,04,11,13,34,14.70
2020,04,11,13,35,14.70
2020,04,11,13,36,14.80
2020,04,11,13,37,14.90
2020,04,11,13,38,14.90
2020,04,11,13,39,14.90
2020,04,11,13,40,15.00
2020,04,11,13,41,15.00
2020,04,11,13,42,15.00
2020,04,11,13,43,15.00
2020,04,11,13,44,15.00
2020,04,11,13,45,15.00
2020,04,11,13,46,15.00
2020,04,11,13,47,15.00
2020,04,11,13,48,15.00
2020,04,11,13,49,15.00
2020,04,11,13,50,15.00
2020,04,11,13,51,15.00
2020,04,11,13,52,15.00
2020,04,11,13,53,15.00
2020,04,11,13,54,15.00
2020,04,11,13,55,15.00
2020,04,11,13,56,15.00
2020,04,11,13,57,14.90
2020,04,11,13,58,14.80
2020,04,11,13,59,14.80
2020,04,11,14,00,14.80
2020,04,11,14,01,14.70
2020,04,11,14,02,14.60
2020,04,11,14,03,14.60
2020,04,11,14,04,14.60
2020,04,11,14,05,14.70
2020,04,11,14,06,14.80
2020,04,11,14,07,15.00
2020,04,11,14,08,15.00
2020,04,11,14,09,15.00
2020,04,11,14,10,15.10
2020,04,11,14,11,15.20
2020,04,11,14,12,15.30
2020,04,11,14,13,15.20
2020,04,11,14,14,15.10
2020,04,11,14,15,15.00
2020,04,11,14,16,15.00
2020,04,11,14,17,15.00
2020,04,11,14,18,15.00
2020,04,11,14,19,15.10
2020,04,11,14,20,15.20
2020,04,11,14,21,15.20
2020,04,11,14,22,15.30
2020,04,11,14,23,15.30
2020,04,11,14,24,15.30
2020,04,11,14,25,15.30
2020,04,11,14,26,15.30
2020,04,11,14,27,15.30
2020,04,11,14,28,15.30
2020,04,11,14,29,15.30
2020,04,11,14,30,15.40
2020,04,11,14,31,15.30
2020,04,11,14,32,15.30
2020,04,11,14,33,15.20
2020,04,11,14,34,15.20
2020,04,11,14,35,15.20
2020,04,11,14,36,15.20
2020,04,11,14,37,15.20
2020,04,11,14,38,15.20
2020,04,11,14,39,15.20
2020,04,11,14,40,15.20
2020,04,11,14,41,15.20
2020,04,11,14,42,15.20
2020,04,11,14,43,15.20
2020,04,11,14,44,15.10
2020,04,11,14,45,15.10
2020,04,11,14,46,15.10
2020,04,11,14,47,15.20
2020,04,11,14,48,15.20
2020,04,11,14,49,15.30
2020,04,11,14,50,15.40
2020,04,11,14,51,15.50
2020,04,11,14,52,15.60
2020,04,11,14,53,15.70
2020,04,11,14,54,15.80
2020,04,11,14,55,15.80
2020,04,11,14,56,15.80
2020,04,11,14,57,15.80
2020,04,11,14,58,15.80
2020,04,11,14,59,15.80
2020,04,11,15,00,15.70
2020,04,11,15,01,15.70
2020,04,11,15,02,15.70
2020,04,11,15,03,15.70
2020,04,11,15,04,15.70
2020,04,11,15,05,15.60
2020,04,11,15,06,15.60
2020,04,11,15,07,15.60
2020,04,11,15,08,15.50
2020,04,11,15,09,15.40
2020,04,11,15,10,15.40
2020,04,11,15,11,15.40
2020,04,11,15,12,15.40
2020,04,11,15,13,15.40
2020,04,11,15,14,15.40
2020,04,11,15,15,15.50
2020,04,11,15,16,15.50
2020,04,11,15,17,15.60
2020,04,11,15,18,15.70
2020,04,11,15,19,15.80
2020,04,11,15,20,15.90
2020,04,11,15,21,16.00
2020,04,11,15,22,16.00
2020,04,11,15,23,16.00
2020,04,11,15,24,15.90
2020,04,11,15,25,15.80
2020,04,11,15,26,15.80
2020,04,11,15,27,15.70
2020,04,11,15,28,15.60
2020,04,11,15,29,15.60
2020,04,11,15,30,15.50
2020,04,11,15,31,15.40
2020,04,11,15,32,15.30
2020,04,11,15,33,15.30
2020,04,11,15,34,15.20
2020,04,11,15,35,15.20
2020,04,11,15,36,15.20
2020,04,11,15,37,15.30
2020,04,11,15,38,15.30
2020,04,11,15,39,15.40
2020,04,11,15,40,15.40
2020,04,11,15,41,15.50
2020,04,11,15,42,15.50
2020,04,11,15,43,15.60
2020,04,11,15,44,15.60
2020,04,11,15,45,15.70
2020,04,11,15,46,15.70
2020,04,11,15,47,15.70
2020,04,11,15,48,15.70
2020,04,11,15,49,15.70
2020,04,11,15,50,15.70
2020,04,11,15,51,15.70
2020,04,11,15,52,15.70
2020,04,11,15,53,15.80
2020,04,11,15,54,15.80
2020,04,11,15,55,15.70
2020,04,11,15,56,15.70
2020,04,11,15,57,15.70
2020,04,11,15,58,15.70
2020,04,11,15,59,15.70
2020,04,11,16,00,15.70
2020,04,11,16,01,15.70
2020,04,11,16,02,15.70
2020,04,11,16,03,15.60
2020,04,11,16,04,15.60
2020,04,11,16,05,15.60
2020,04,11,16,06,15.60
2020,04,11,16,07,15.60
2020,04,11,16,08,15.60
2020,04,11,16,09,15.60
2020,04,11,16,10,15.60
2020,04,11,16,11,15.60
2020,04,11,16,12,15.60
2020,04,11,16,13,15.60
2020,04,11,16,14,15.60
2020,04,11,16,15,15.60
2020,04,11,16,16,15.70
2020,04,11,16,17,15.70
2020,04,11,16,18,15.70
2020,04,11,16,19,15.60
2020,04,11,16,20,15.60
2020,04,11,16,21,15.60
2020,04,11,16,22,15.60
2020,04,11,16,23,15.60
2020,04,11,16,24,15.50
2020,04,11,16,25,15.50
2020,04,11,16,26,15.60
2020,04,11,16,27,15.60
2020,04,11,16,28,15.60
2020,04,11,16,29,15.70
2020,04,11,16,30,15.70
2020,04,11,16,31,15.70
2020,04,11,16,32,15.70
2020,04,11,16,33,15.60
2020,04,11,16,34,15.60
2020,04,11,16,35,15.60
2020,04,11,16,36,15.60
2020,04,11,16,37,15.60
2020,04,11,16,38,15.50
2020,04,11,16,39,15.50
2020,04,11,16,40,15.50
2020,04,11,16,41,15.50
2020,04,11,16,42,15.50
2020,04,11,16,43,15.50
2020,04,11,16,44,15.50
2020,04,11,16,45,15.50
2020,04,11,16,46,15.60
2020,04,11,16,47,15.60
2020,04,11,16,48,15.60
2020,04,11,16,49,15.70
2020,04,11,16,50,15.70
2020,04,11,16,51,15.70
2020,04,11,16,52,15.70
2020,04,11,16,53,15.60
2020,04,11,16,54,15.60
2020,04,11,16,55,15.60
2020,04,11,16,56,15.60
2020,04,11,16,57,15.50
2020,04,11,16,58,15.50
2020,04,11,16,59,15.40
2020,04,11,17,00,15.40
2020,04,11,17,01,15.40
2020,04,11,17,02,15.40
2020,04,11,17,03,15.40
2020,04,11,17,04,15.40
2020,04,11,17,05,15.40
2020,04,11,17,06,15.40
2020,04,11,17,07,15.40
2020,04,11,17,08,15.40
2020,04,11,17,09,15.40
2020,04,11,17,10,15.40
2020,04,11,17,11,15.30
2020,04,11,17,12,15.30
2020,04,11,17,13,15.30
2020,04,11,17,14,15.30
2020,04,11,17,15,15.30
2020,04,11,17,16,15.20
2020,04,11,17,17,15.20
2020,04,11,17,18,15.20
2020,04,11,17,19,15.20
2020,04,11,17,20,15.10
2020,04,11,17,21,15.10
2020,04,11,17,22,15.10
2020,04,11,17,23,15.20
2020,04,11,17,24,15.20
2020,04,11,17,25,15.20
2020,04,11,17,26,15.20
2020,04,11,17,27,15.20
2020,04,11,17,28,15.20
2020,04,11,17,29,15.30
2020,04,11,17,30,15.30
2020,04,11,17,31,15.30
2020,04,11,17,32,15.30
2020,04,11,17,33,15.40
2020,04,11,17,34,15.40
2020,04,11,17,35,15.40
2020,04,11,17,36,15.40
2020,04,11,17,37,15.30
2020,04,11,17,38,15.30
2020,04,11,17,39,15.30
2020,04,11,17,40,15.30